Regional Weather Roundup
Issued by NWS

Home | Current Version | Previous Version | Graphics & Text | Print | Product List | Glossary On
Versions: 1 2 3 4 5 6 7 8 9 10 11 12 13 14 15 16 17 18 19 20 21 22 23 24 25 26 27 28 29 30 31 32 33 34 35 36 37 38 39 40 41 42 43 44 45 46 47 48 49 50
000
ASUS43 KMPX 221510
RWRMN
WEATHER ROUNDUP FOR MINNESOTA
NATIONAL WEATHER SERVICE TWIN CITIES/CHANHASSEN MN
1000 AM CDT WED MAR 22 2017


NOTE: "FAIR" INDICATES FEW OR NO CLOUDS BELOW 12,000 FEET WITH NO
SIGNIFICANT WEATHER AND/OR OBSTRUCTIONS TO VISIBILITY. N/A MEANS
CURRENT SKY AND/OR WEATHER CONDITIONS ARE NOT AVAILABLE.

MNZ060>063-068>070-221600-
   Twin Cities Metro

CITY           SKY/WX    TMP DP  RH WIND       PRES   REMARKS
TWIN CITIES    MOSUNNY   28   6  39 SE16G24   30.55S WCI  16
ST PAUL        SUNNY     28  10  46 SE15      30.58S WCI  16
CRYSTAL        SUNNY     27   6  41 SE16      30.54S WCI  15
BLAINE         MOSUNNY   28   9  43 SE12G18   30.54F WCI  18
LAKEVILLE      SUNNY     27  10  50 SE15G21   30.53F WCI  15
EDEN PRAIRIE   SUNNY     29   7  39 SE20      30.52F WCI  16
SOUTH ST PAUL  SUNNY     28   8  43 SE9       30.56S WCI  19
LAKE ELMO      FAIR      28  12  50 SE10      30.57S WCI  19
$$
MNZ001>005-007-008-013>017-022>024-027-028-221600-
   Northwest Minnesota

CITY           SKY/WX    TMP DP  RH WIND       PRES   REMARKS
BEMIDJI        MOSUNNY   21   4  47 SE15      30.45F WCI   8
HALLOCK        CLOUDY    25  10  54 S20       30.40F WCI  11
ROSEAU         CLOUDY    23   9  54 S12       30.45S WCI  12
WARROAD        MOSUNNY   21   7  53 S12       30.46S WCI   9
THIEF RVR FALL MOSUNNY   23   8  52 S16G22    30.42F WCI  10
CROOKSTON      CLOUDY    25   9  50 S20G25    30.41F WCI  11
FOSSTON        SUNNY     25   3  39 SE17      30.42F WCI  11
DETROIT LAKES  CLOUDY    25   9  50 SE20G28   30.41F WCI  11
MOORHEAD       CLOUDY    27   9  46 S24       30.41F WCI  12
PARK RAPIDS    SUNNY     24   4  42 S18       30.44F WCI  10
MAHNOMEN       FAIR      24   5  44 SE16G23   30.41S WCI  11
$$
MNZ006-009>011-018-025>026-221600-
   North Central Minnesota

CITY           SKY/WX    TMP DP  RH WIND       PRES   REMARKS
BAUDETTE       MOSUNNY   20   5  52 S8        30.47F WCI  10
FLAG ISLAND    MOSUNNY   16   5  62 S15       30.46F WCI   1
INTL FALLS     CLOUDY    19   1  45 S10       30.51S WCI   7
WASKISH        CLOUDY    23   3  42 SE9       30.47F WCI  13
BIG FORK       SUNNY     21   1  42 SE7       30.49F WCI  13
LONGVILLE      SUNNY     23   7  50 SE12G17   30.48F WCI  12
GRAND RAPIDS   SUNNY     21   8  57 SE13G18   30.52S WCI   9
CRANE LAKE     SUNNY     18  -2  41 SE3       30.56S
ORR            SUNNY     19  -6  32 CALM      30.49S
COOK           SUNNY     19   0  42 SE3       30.52S
WALKER         FAIR      22   3  44 S13G20    30.47S WCI  10
$$
MNZ012-019>021-037-221600-
   Northeast Minnesota

CITY           SKY/WX    TMP DP  RH WIND       PRES   REMARKS
DULUTH         SUNNY     23   7  50 S12       30.52S WCI  12
ELY            SUNNY     18   5  57 S7        30.52S WCI   8
HIBBING        SUNNY     19   7  59 SE12      30.51F WCI   7
EVELETH        SUNNY     22   1  38 SE9       30.52F WCI  12
DULUTH HARBOR  SUNNY     27   9  46 CALM      30.60R
TWO HARBORS    SUNNY     27  16  63 S3        30.54R
SILVER BAY     SUNNY     25  12  58 SE5       30.55R WCI  19
GRAND MARAIS     N/A     21   3  45 E6        30.62S WCI  13
G MARAIS ARPRT SUNNY     16  -9  32 SE3       30.51F
$$
MNZ029>031-032-039>041-046>048-054>057-064-221600-
   West Central Minnesota

CITY           SKY/WX    TMP DP  RH WIND       PRES   REMARKS
FERGUS FALLS   CLOUDY    25   9  50 SE20G25   30.47F WCI  11
WHEATON        CLOUDY    27  10  50 SE22      30.43F WCI  12
MORRIS         CLOUDY    27  10  50 SE20G28   30.43F WCI  13
ALEXANDRIA     CLOUDY    25   8  48 SE20      30.45F WCI  11
ELBOW LAKE     CLOUDY    26   8  46 SE22      30.44S WCI  11
WADENA         SUNNY     23   7  50 SE16      30.44F WCI  10
GLENWOOD       CLOUDY    27  10  50 SE21G26   30.46F WCI  13
APPLETON       CLOUDY    27  12  54 SE15      30.45S WCI  15
BENSON         CLOUDY    28   7  40 S16       30.48R WCI  17
ORTONVILLE     CLOUDY    25  12  58 SE16      30.42F WCI  12
MADISON        CLOUDY    28  18  64 SE16      30.44F WCI  17
WILLMAR        FAIR      28  14  54 SE22      30.49S WCI  15
$$
MNZ033>034-036-042>043-049>051-058-059-221600-
   Central Minnesota

CITY           SKY/WX    TMP DP  RH WIND       PRES   REMARKS
ST CLOUD       SUNNY     26   7  44 SE13      30.51F WCI  15
SAUK CENTRE    FAIR      26   9  49 SE17      30.48F WCI  13
PAYNESVILLE      N/A     26   8  46 SE15      30.50R WCI  14
AITKIN         SUNNY     27   1  33 S14       30.50F WCI  15
PINE RIVER     SUNNY     23   9  54 SE10      30.50F WCI  12
BRAINERD       SUNNY     24   6  46 SE13G21   30.49F WCI  12
STAPLES        SUNNY     25   5  42 SE9       30.47F WCI  15
LONG PRAIRIE   FAIR      25   9  50 E15       30.48S WCI  12
LITTLE FALLS   SUNNY     27   9  46 SE14G20   30.50S WCI  15
LITCHFIELD     SUNNY     28   9  43 SE12G17   30.50S WCI  18
BUFFALO        SUNNY     28   8  42 SE13G23   30.53S WCI  17
MAPLE LAKE     SUNNY     29  13  50 SE13      30.52S WCI  19
HUTCHINSON     MOSUNNY   29  12  49 SE17      30.51S WCI  17
$$
MNZ037-044-045-052-053-221600-
   East Central Minnesota

CITY           SKY/WX    TMP DP  RH WIND       PRES   REMARKS
PRINCETON      SUNNY     28   9  43 SE13      30.54R WCI  18
MORA           SUNNY     27   9  46 S9        30.56S WCI  17
CAMBRIDGE      SUNNY     28  12  50 SE8       30.53S WCI  20
RUSH CITY      SUNNY     27   9  47 SE7       30.56S WCI  19
MOOSE LAKE     SUNNY     27   7  43 S7        30.53S WCI  19
HINCKLEY       FAIR      27   9  46 SE9       30.56R WCI  17
CLOQUET        SUNNY     23   3  42 SE6       30.52F WCI  16
MCGREGOR       SUNNY     27   9  46 SE12      30.53S WCI  16
$$
MNZ071>073-080-081-089-090-097-098-221600-
   Southwest Minnesota

CITY           SKY/WX    TMP DP  RH WIND       PRES   REMARKS
MONTEVIDEO     CLOUDY    27  14  59 S16       30.47F WCI  14
GRANITE FALLS  CLOUDY    28  16  61 SE18      30.48F WCI  15
CANBY          CLOUDY    27  19  70 E14       30.44S WCI  16
MARSHALL       CLOUDY    27  17  66 SE15      30.45F WCI  15
REDWOOD FALLS  CLOUDY    28  12  51 SE18      30.48S WCI  15
OLIVIA         SUNNY     30  16  55 SE18      30.48S WCI  18
PIPESTONE      CLOUDY    28  10  47 S17G23    30.38F WCI  16
WINDOM         CLOUDY    27  16  63 SE15      30.45S WCI  15
WORTHINGTON    CLOUDY    27  17  66 SE18      30.42S WCI  14
JACKSON        CLOUDY    28  18  64 SE16      30.46S WCI  17
TRACY          CLOUDY    28  18  65 SE15G21   30.44F WCI  17
SLAYTON        CLOUDY    26  17  68 SE20      30.42S WCI  12
$$
MNZ065>067-074>077-082>085-091>093-221600-
   South Central Minnesota

CITY           SKY/WX    TMP DP  RH WIND       PRES   REMARKS
MANKATO        SUNNY     28  14  55 SE17      30.51  WCI  16
NEW ULM        SUNNY     28  10  47 SE16      30.49F WCI  17
ST JAMES       PTSUNNY   28  18  64 SE18      30.50S WCI  16
FAIRMONT       MOSUNNY   29  18  63 SE21      30.48F WCI  16
GLENCOE        SUNNY     28  13  52 SE16G22   30.51S WCI  17
FARIBAULT      SUNNY     28  10  47 SE15      30.53R WCI  17
OWATONNA       SUNNY     28   9  43 SE17      30.52R WCI  16
WASECA         SUNNY     28  14  54 SE18      30.53S WCI  16
ALBERT LEA     SUNNY     27  12  54 SE17      30.50F WCI  14
$$
MNZ078>079-086>088-094>096-221600-
   Southeast Minnesota

CITY           SKY/WX    TMP DP  RH WIND       PRES   REMARKS
ROCHESTER      SUNNY     26  11  52 SE18      30.53S WCI  13
RED WING       SUNNY     28   3  34 SE10G16   30.57R WCI  19
STANTON        SUNNY     28   8  42 SE12G21   30.54S WCI  18
DODGE CENTER   SUNNY     27  10  50 SE16G22   30.52S WCI  14
WINONA         SUNNY     30   7  37 SE13G18   30.60S WCI  20
AUSTIN         SUNNY     27  12  54 SE14G20   30.51S WCI  15
PRESTON        SUNNY     26   7  46 SE13G18   30.54F WCI  14
$$
ABBREVIATIONS USED IN REMARKS
   TC - TEMPERATURES IN CELSIUS
  WCI - WIND CHILL INDEX
   HX - HEAT INDEX
  VSB - VISIBILITY
$$



USA.gov is the U.S. government's official web portal to all federal, state and local government web resources and services.